1530025200.04,23662,16.25,73988.8,4.41,3.67,3.71,0,*78
1530025201.24,23663,16.25,73990.5,4.41,3.81,3.97,0,*79
1530025202.44,23664,16.25,73990.8,4.41,3.59,3.67,0,*74
1530025203.65,23665,16.25,73990.5,4.41,3.15,3.25,0,*7B
1530025204.88,23666,16.25,73988.8,4.39,3.19,3.29,0,*77
1530025206.09,23667,16.25,73990.8,4.39,3.53,3.63,0,*76
1530025207.35,23668,16.25,73992.0,4.39,3.71,3.79,0,*72
1530025208.58,23669,16.25,73988.3,4.39,3.89,4.05,0,*78
1530025209.83,23670,16.25,73988.5,4.39,4.01,4.05,0,*77
1530025211.08,23671,16.25,73992.8,4.39,3.79,3.79,0,*72
1530025212.28,23672,16.25,73988.8,4.41,3.81,3.97,0,*79
1530025213.48,23673,16.25,73992.5,4.43,4.07,4.11,0,*7A
1530025214.68,23674,16.25,73988.8,4.41,3.89,3.97,0,*77
1530025215.91,23675,16.25,73990.0,4.43,3.89,4.01,0,*7C
1530025217.09,23676,16.25,73990.8,4.41,3.93,4.07,0,*70
1530025218.29,23677,16.25,73990.0,4.43,3.59,3.63,0,*70
1530025219.51,23678,16.25,73990.8,4.43,3.19,3.25,0,*79
1530025220.71,23679,16.25,73990.5,4.41,2.89,2.99,0,*74
1530025221.94,23680,16.25,73990.0,4.41,2.77,2.89,0,*72
1530025223.13,23681,16.25,73994.3,4.41,2.85,2.91,0,*77
1530025224.34,23682,16.25,73990.3,4.41,2.65,2.85,0,*7F
1530025225.56,23683,16.25,73992.0,4.35,2.99,3.11,0,*72
1530025226.73,23684,16.31,73992.5,4.41,3.55,3.59,0,*7B
1530025227.96,23685,16.25,73990.8,4.39,3.79,3.93,0,*7D
1530025229.18,23686,16.25,73988.0,4.39,3.55,3.71,0,*7C
1530025230.4,23687,16.25,73988.3,4.39,3.55,3.67,0,*7A
1530025231.58,23688,16.25,73986.3,4.41,3.81,3.85,0,*7F
1530025232.78,23689,16.25,73990.8,4.41,3.93,4.05,0,*72
1530025233.96,23690,16.25,73986.8,4.41,3.85,3.93,0,*75
1530025235.19,23691,16.25,73992.5,4.43,3.89,4.01,0,*76
1530025236.39,23692,16.25,73990.5,4.41,4.05,4.15,0,*71
1530025237.6,23693,16.25,73990.5,4.43,4.33,4.33,0,*73
1530025238.8,23694,16.25,73990.5,4.43,4.23,4.33,0,*75
1530025240.0,23695,16.25,73988.3,4.43,4.11,4.23,0,*74
1530025241.21,23696,16.25,73986.8,4.47,4.37,4.49,0,*7B
1530025242.45,23697,16.25,73990.8,4.47,4.53,4.75,0,*77
1530025243.68,23698,16.25,73988.8,4.49,4.75,4.93,0,*7A
1530025244.88,23699,16.25,73990.5,4.49,4.75,4.81,0,*78
1530025246.14,23700,16.25,73990.8,4.51,4.67,4.75,0,*78
1530025247.35,23701,16.25,73990.0,4.53,4.57,4.63,0,*7F
1530025248.55,23702,16.25,73988.0,4.53,4.57,4.63,0,*7C
1530025249.82,23703,16.25,73990.8,4.55,4.59,4.71,0,*76
1530025251.08,23704,16.25,73990.0,4.55,4.59,4.67,0,*76
1530025252.28,23705,16.25,73988.5,4.55,4.33,4.45,0,*7B
1530025253.52,23706,16.25,73988.5,4.57,4.59,4.71,0,*71
1530025254.72,23707,16.25,73988.0,4.57,4.81,4.97,0,*7D
1530025255.9,23708,16.25,73990.3,4.61,4.45,4.57,0,*73
1530025257.09,23709,16.25,73990.5,4.61,4.37,4.49,0,*78
1530025258.27,23710,16.25,73990.3,4.61,4.11,4.15,0,*7D
1530025259.47,23711,16.25,73988.3,4.61,4.01,4.11,0,*79
1530025260.65,23712,16.25,73988.3,4.61,4.11,4.15,0,*7F
1530025261.88,23713,16.25,73988.8,4.63,4.53,4.67,0,*7F
1530025263.15,23714,16.25,73990.5,4.63,4.59,4.75,0,*71
1530025264.32,23715,16.25,73990.3,4.65,4.49,4.53,0,*73
1530025265.52,23716,16.25,73990.3,4.65,4.49,4.63,0,*73
1530025266.78,23717,16.25,73988.0,4.67,4.63,4.71,0,*7B
1530025268.01,23718,16.25,73990.0,4.65,4.79,5.01,0,*7B
1530025269.24,23719,16.25,73988.8,4.67,4.89,5.05,0,*73
1530025270.48,23720,16.25,73992.5,4.69,4.59,4.67,0,*7F
1530025271.65,23721,16.31,73992.0,4.69,4.33,4.49,0,*7E
1530025272.85,23722,16.25,73988.5,4.69,4.49,4.59,0,*71
1530025274.05,23723,16.25,73994.3,4.69,4.75,4.81,0,*7A
1530025275.26,23724,16.25,73992.0,4.69,4.97,5.07,0,*7E
1530025276.47,23725,16.25,73992.8,4.73,4.85,4.97,0,*7F
1530025277.73,23726,16.25,73990.0,4.75,4.59,4.63,0,*70
1530025278.94,23727,16.25,73992.5,4.73,4.31,4.41,0,*79
1530025280.11,23728,16.25,73988.3,4.73,4.41,4.53,0,*72
1530025281.32,23729,16.25,73992.3,4.73,4.31,4.49,0,*7F
1530025282.5,23730,16.25,73994.0,4.73,4.37,4.53,0,*7A
1530025283.73,23731,16.25,73990.3,4.75,4.53,4.59,0,*75
1530025284.94,23732,16.25,73994.3,4.77,4.31,4.41,0,*79
1530025286.15,23733,16.25,73992.3,4.77,3.81,4.05,0,*74
1530025287.37,23734,16.25,73992.8,4.75,4.01,4.19,0,*73
1530025288.6,23735,16.25,73992.3,4.75,4.31,4.49,0,*74
1530025289.86,23736,16.25,73990.8,4.75,4.63,4.71,0,*7B
1530025291.1,23737,16.25,73990.0,4.77,4.63,4.75,0,*7C
1530025292.33,23738,16.25,73990.3,4.77,4.67,4.79,0,*7B
1530025293.54,23739,16.25,73990.5,4.79,4.85,4.85,0,*7B
1530025294.77,23740,16.25,73988.5,4.77,4.63,4.67,0,*7F
1530025296.0,23741,16.25,73990.0,4.79,4.85,4.97,0,*77
1530025297.24,23742,16.25,73990.5,4.81,4.71,4.79,0,*78
1530025298.44,23743,16.25,73994.3,4.79,4.11,4.15,0,*72
1530025299.65,23744,16.25,73988.5,4.79,4.33,4.49,0,*7C
1530025300.91,23745,16.25,73988.5,4.79,4.93,5.05,0,*7E
1530025302.14,23746,16.25,73992.3,4.79,5.41,5.51,0,*72
1530025303.36,23747,16.25,73990.8,4.87,5.67,5.81,0,*7B
1530025304.59,23748,16.25,73990.8,4.87,5.41,5.55,0,*79
1530025305.82,23749,16.25,73990.5,4.87,5.55,5.71,0,*7B
1530025307.01,23750,16.25,73994.5,4.89,5.71,5.85,0,*70
1530025308.19,23751,16.25,73992.8,4.89,5.63,5.63,0,*7A
1530025309.43,23752,16.25,73992.8,4.91,5.51,5.51,0,*70
1530025310.65,23753,16.25,73992.3,4.93,5.19,5.29,0,*70
1530025311.85,23754,16.25,73994.3,4.95,5.55,5.71,0,*74
1530025313.08,23755,16.31,73994.3,4.97,5.81,6.03,0,*78
1530025314.31,23756,16.25,73988.3,4.97,5.81,6.03,0,*7B
1530025315.55,23757,16.25,73990.8,5.01,6.21,6.43,0,*79
1530025316.72,23758,16.25,73992.8,5.03,6.79,6.97,0,*70
1530025317.93,23759,16.25,73994.0,5.07,7.05,7.23,0,*71
1530025319.13,23760,16.25,73992.3,5.09,6.79,6.93,0,*75
1530025320.34,23761,16.25,73994.5,5.13,7.01,7.11,0,*7A
1530025321.57,23762,16.25,73992.3,5.19,6.91,7.15,0,*7F
1530025322.8,23763,16.25,73994.0,5.19,6.35,6.57,0,*77
1530025324.03,23764,16.31,73994.3,5.21,6.25,6.39,0,*72
1530025325.28,23765,16.25,73992.0,5.21,6.35,6.57,0,*7A
1530025326.45,23766,16.31,73992.3,5.23,7.05,7.09,0,*73
1530025327.68,23767,16.25,73994.3,5.25,8.13,8.55,0,*7A
1530025328.91,23768,16.25,73992.0,5.33,8.51,8.75,0,*76
1530025330.11,23769,16.25,73992.3,5.37,8.23,8.47,0,*77
1530025331.34,23770,16.25,73994.0,5.41,8.37,8.71,0,*7E
1530025332.54,23771,16.25,73994.0,5.45,8.19,8.33,0,*71
1530025333.76,23772,16.31,73992.3,5.49,7.69,7.87,0,*76
1530025334.98,23773,16.25,73990.5,5.53,7.73,7.95,0,*74
1530025336.2,23774,16.25,73994.3,5.53,7.73,7.87,0,*70
1530025337.38,23775,16.25,73992.8,5.59,7.79,8.09,0,*78
1530025338.61,23776,16.25,73992.0,5.63,7.91,8.13,0,*7F
1530025339.86,23777,16.25,73988.5,5.69,7.73,7.91,0,*7D
1530025341.11,23778,16.25,73994.5,5.69,7.61,7.73,0,*7D
1530025342.29,23779,16.25,73994.8,5.71,7.29,7.51,0,*79
1530025343.51,23780,16.25,73990.0,5.73,7.09,7.23,0,*7A
1530025344.71,23781,16.25,73992.8,5.75,6.97,7.11,0,*7A
1530025345.93,23782,16.25,73988.0,5.75,6.69,6.87,0,*76
1530025347.13,23783,16.25,73994.3,5.75,6.57,6.75,0,*77
1530025348.32,23784,16.25,73994.0,5.75,6.57,6.75,0,*70
1530025349.54,23785,16.25,73992.0,5.79,6.53,6.65,0,*78
1530025350.75,23786,16.25,73994.3,5.75,6.25,6.47,0,*76
1530025351.95,23787,16.25,73992.0,5.77,5.99,6.11,0,*72
1530025353.18,23788,16.25,73992.8,5.77,5.89,5.99,0,*7F
1530025354.38,23789,16.25,73992.8,5.77,6.11,6.33,0,*7F
1530025355.61,23790,16.25,73992.8,5.79,6.35,6.51,0,*7B
1530025356.82,23791,16.25,73994.0,5.79,6.03,6.13,0,*79
1530025358.03,23792,16.31,73994.8,5.77,5.67,5.73,0,*70
1530025359.25,23793,16.25,73992.8,5.77,5.67,5.77,0,*75
1530025360.48,23794,16.25,73990.5,5.77,5.81,5.99,0,*7A
1530025361.72,23795,16.25,73990.8,5.77,5.73,5.81,0,*7F
1530025362.91,23796,16.25,73992.0,5.75,5.59,5.73,0,*7B
1530025364.15,23797,16.25,73992.8,5.77,5.55,5.73,0,*74
1530025365.39,23798,16.25,73994.0,5.77,5.77,5.81,0,*76
1530025366.61,23799,16.25,73994.5,5.75,5.81,5.89,0,*74
1530025367.85,23800,16.25,73994.5,5.77,5.73,5.89,0,*74
1530025369.05,23801,16.31,73992.5,5.75,5.51,5.59,0,*7A
1530025370.27,23802,16.25,73990.3,5.77,5.55,5.67,0,*72
1530025371.49,23803,16.31,73994.5,5.79,5.85,5.85,0,*7C
1530025372.69,23804,16.25,73994.3,5.75,5.89,6.07,0,*72
1530025373.94,23805,16.31,73994.3,5.77,5.73,5.81,0,*79
1530025375.15,23806,16.25,73994.8,5.77,5.67,5.77,0,*76
1530025376.39,23807,16.25,73988.8,5.77,5.77,5.89,0,*77
1530025377.63,23808,16.31,73994.3,5.77,5.73,5.89,0,*7C
1530025378.85,23809,16.31,73992.3,5.77,5.51,5.63,0,*79
1530025380.03,23810,16.31,73994.5,5.75,5.07,5.19,0,*7D
1530025381.24,23811,16.31,73992.8,5.75,5.05,5.07,0,*71
1530025382.44,23812,16.31,73992.5,5.75,5.33,5.51,0,*74
1530025383.63,23813,16.25,73990.5,5.75,5.51,5.63,0,*70
1530025384.82,23814,16.31,73994.8,5.75,5.59,5.73,0,*7E
1530025385.99,23815,16.25,73988.5,5.75,5.49,5.63,0,*7F
1530025387.19,23816,16.25,73990.5,5.75,5.41,5.51,0,*75
1530025388.38,23817,16.31,73994.3,5.75,5.51,5.63,0,*74
1530025389.58,23818,16.31,73994.8,5.77,5.33,5.41,0,*7D
1530025390.81,23819,16.25,73990.3,5.75,5.01,5.05,0,*7F
1530025392.04,23820,16.25,73990.3,5.73,4.89,5.01,0,*76
1530025393.29,23821,16.31,73992.5,5.73,4.93,5.01,0,*7C
1530025394.55,23822,16.31,73992.8,5.73,4.93,5.01,0,*7F
1530025395.8,23823,16.31,73994.3,5.73,5.01,5.05,0,*70
1530025397.03,23824,16.25,73992.8,5.73,5.05,5.19,0,*7E
1530025398.26,23825,16.31,73992.5,5.71,5.01,5.05,0,*74
1530025399.51,23826,16.25,73990.0,5.73,4.93,4.97,0,*75
1530025400.71,23827,16.25,73992.5,5.71,4.53,4.63,0,*71
1530025401.93,23828,16.31,73994.0,5.69,4.57,4.67,0,*77
1530025403.13,23829,16.31,73990.8,5.69,4.33,4.45,0,*74
1530025404.33,23830,16.31,73994.0,5.69,4.23,4.23,0,*7D
1530025405.52,23831,16.25,73990.5,5.67,4.01,4.15,0,*77
1530025406.72,23832,16.25,73994.3,5.63,3.67,3.85,0,*79
1530025407.91,23833,16.25,73988.3,5.61,3.55,3.63,0,*73
1530025409.11,23834,16.31,73992.5,5.61,4.15,4.23,0,*74
1530025410.31,23835,16.25,73988.0,5.59,4.19,4.31,0,*71
1530025411.49,23836,16.25,73990.0,5.59,4.19,4.23,0,*71
1530025412.71,23837,16.31,73994.3,5.59,3.97,4.05,0,*75
1530025413.94,23838,16.25,73992.8,5.59,3.71,3.75,0,*72
1530025415.14,23839,16.31,73994.0,5.57,3.59,3.59,0,*79
1530025416.34,23840,16.31,73992.5,5.53,3.89,4.05,0,*70
1530025417.51,23841,16.31,73992.3,5.53,4.07,4.15,0,*71
1530025418.71,23842,16.25,73992.8,5.53,4.15,4.31,0,*77
1530025419.91,23843,16.25,73992.0,5.53,4.63,4.81,0,*7C
1530025421.13,23844,16.31,73994.8,5.53,4.79,4.93,0,*73
1530025422.33,23845,16.31,73994.3,5.51,5.07,5.29,0,*78
1530025423.58,23846,16.25,73990.8,5.57,5.05,5.27,0,*71
1530025424.81,23847,16.31,73994.3,5.57,4.79,4.89,0,*7F
1530025426.01,23848,16.31,73994.8,5.53,4.53,4.75,0,*7F
1530025427.21,23849,16.25,73992.8,5.53,4.71,4.81,0,*75
1530025428.44,23850,16.25,73992.3,5.53,4.59,4.71,0,*78
1530025429.63,23851,16.31,73992.5,5.53,4.49,4.59,0,*72
1530025430.83,23852,16.25,73992.5,5.53,4.49,4.63,0,*78
1530025432.03,23853,16.31,73992.3,5.53,4.71,4.85,0,*7A
1530025433.2,23854,16.25,73992.3,5.53,4.85,4.89,0,*7A
1530025434.4,23855,16.25,73992.5,5.53,4.89,4.97,0,*78
1530025435.6,23856,16.31,73994.0,5.53,4.85,4.97,0,*77
1530025436.79,23857,16.25,73992.0,5.53,4.49,4.63,0,*7D
1530025437.99,23858,16.31,73994.3,5.51,4.15,4.27,0,*79
1530025439.2,23859,16.31,73994.0,5.51,4.23,4.41,0,*7D
1530025440.4,23860,16.25,73992.5,5.51,4.33,4.49,0,*7E
1530025441.6,23861,16.25,73992.0,5.53,4.53,4.71,0,*70
1530025442.86,23862,16.25,73992.0,5.51,4.93,5.05,0,*7F
1530025444.06,23863,16.31,73996.5,5.51,5.19,5.41,0,*7D
1530025445.29,23864,16.25,73990.5,5.51,4.85,4.97,0,*74
1530025446.52,23865,16.25,73988.5,5.51,4.45,4.59,0,*7B
1530025447.72,23866,16.31,73996.3,5.53,4.97,5.11,0,*78
1530025448.92,23867,16.25,73992.0,5.53,5.33,5.51,0,*72
1530025450.09,23868,16.31,73994.8,5.53,5.19,5.33,0,*71
1530025451.35,23869,16.31,73996.8,5.57,5.01,5.05,0,*78
1530025452.58,23870,16.31,73994.8,5.57,4.85,4.93,0,*73
1530025453.78,23871,16.31,73996.5,5.57,5.15,5.33,0,*71
1530025454.99,23872,16.25,73994.8,5.57,5.27,5.45,0,*72
1530025456.16,23873,16.31,73998.3,5.59,5.49,5.63,0,*71
1530025457.34,23874,16.31,73992.5,5.59,5.59,5.63,0,*77
1530025458.54,23875,16.31,73992.5,5.59,5.49,5.55,0,*72
1530025459.74,23876,16.31,73994.8,5.61,5.19,5.29,0,*74
1530025460.95,23877,16.25,73988.8,5.61,5.27,5.41,0,*76
1530025462.16,23878,16.31,73994.3,5.61,5.27,5.41,0,*79
1530025463.41,23879,16.31,73994.3,5.61,4.67,4.71,0,*7F
1530025464.66,23880,16.31,73992.8,5.61,4.67,4.79,0,*71
1530025465.89,23881,16.31,73992.8,5.61,4.97,5.19,0,*78
1530025467.12,23882,16.25,73990.3,5.63,4.93,5.05,0,*70
1530025468.35,23883,16.31,73992.8,5.63,4.93,5.05,0,*71
1530025469.55,23884,16.25,73990.3,5.61,5.19,5.41,0,*77
1530025470.75,23885,16.31,73992.3,5.61,5.19,5.37,0,*77
1530025471.94,23886,16.31,73996.3,5.63,5.41,5.51,0,*7B
1530025473.14,23887,16.31,73994.0,5.61,5.19,5.37,0,*75
1530025474.33,23888,16.31,73992.5,5.63,4.37,4.57,0,*72
1530025475.5,23889,16.31,73996.0,5.63,4.33,4.49,0,*78
1530025476.73,23890,16.31,73994.5,5.63,4.71,4.93,0,*71
1530025477.96,23891,16.31,73994.0,5.61,5.05,5.19,0,*73
1530025479.19,23892,16.31,73992.3,5.61,4.89,4.93,0,*76
1530025480.42,23893,16.31,73994.3,5.63,4.59,4.67,0,*73
1530025481.62,23894,16.31,73994.0,5.61,4.45,4.57,0,*78
1530025482.82,23895,16.25,73990.3,5.61,4.33,4.37,0,*7E
1530025484.02,23896,16.31,73994.3,5.61,4.11,4.23,0,*78
1530025485.22,23897,16.31,73994.3,5.57,4.41,4.57,0,*7A
1530025486.43,23898,16.31,73994.5,5.59,5.01,5.23,0,*7C
1530025487.65,23899,16.31,73994.3,5.61,5.37,5.51,0,*76
1530025488.85,23900,16.31,73994.0,5.61,5.19,5.29,0,*74
1530025490.08,23901,16.31,73992.5,5.63,4.93,5.05,0,*7A
1530025491.33,23902,16.31,73996.3,5.61,4.97,5.05,0,*7F
1530025492.54,23903,16.31,73994.8,5.61,5.27,5.41,0,*74
1530025493.76,23904,16.31,73994.3,5.61,5.67,5.85,0,*7F
1530025494.97,23905,16.31,73994.0,5.63,5.89,6.11,0,*72
1530025496.14,23906,16.31,73994.3,5.67,5.99,6.11,0,*74
1530025497.36,23907,16.25,73992.0,5.69,5.71,5.81,0,*77
1530025498.55,23908,16.31,73994.3,5.67,5.55,5.63,0,*7C
1530025499.77,23909,16.31,73996.3,5.69,5.71,5.85,0,*7D
1530025500.97,23910,16.31,73994.8,5.71,5.85,6.03,0,*7A
1530025502.16,23911,16.31,73994.3,5.71,5.55,5.67,0,*77
1530025503.35,23912,16.31,73994.8,5.71,5.27,5.45,0,*71
1530025504.56,23913,16.31,73994.8,5.71,5.55,5.73,0,*70
1530025505.78,23914,16.31,73992.5,5.73,5.77,5.99,0,*71
1530025507.0,23915,16.31,73992.3,5.73,5.85,6.07,0,*79
1530025508.2,23916,16.31,73994.0,5.75,5.85,5.99,0,*78
1530025509.42,23917,16.31,73994.3,5.75,5.73,5.85,0,*7D
1530025510.58,23918,16.31,73992.5,5.75,5.29,5.37,0,*74
1530025511.76,23919,16.31,73992.8,5.75,5.19,5.29,0,*79
1530025512.95,23920,16.31,73994.8,5.75,5.15,5.27,0,*71
1530025514.15,23921,16.31,73994.0,5.75,4.89,5.05,0,*74
1530025515.38,23922,16.31,73994.0,5.77,5.05,5.07,0,*72
1530025516.57,23923,16.31,73992.5,5.75,5.27,5.41,0,*73
1530025517.76,23924,16.31,73994.3,5.77,5.45,5.63,0,*72
1530025518.98,23925,16.31,73994.5,5.77,5.55,5.67,0,*76
1530025520.2,23926,16.31,73990.0,5.77,5.51,5.67,0,*71
1530025521.42,23927,16.31,73992.5,5.77,5.33,5.51,0,*71
1530025522.6,23928,16.31,73996.0,5.79,5.33,5.49,0,*79
1530025523.77,23929,16.31,73994.5,5.79,5.45,5.59,0,*78
1530025524.94,23930,16.31,73994.8,5.79,5.11,5.11,0,*7D
1530025526.14,23931,16.31,73996.3,5.79,5.37,5.55,0,*78
1530025527.34,23932,16.31,73994.0,5.79,5.67,5.85,0,*73
1530025528.56,23933,16.31,73994.0,5.79,5.93,6.13,0,*75
1530025529.8,23934,16.31,73992.3,5.81,5.77,5.93,0,*74
1530025531.01,23935,16.31,73992.3,5.81,5.77,5.95,0,*73
1530025532.21,23936,16.31,73992.0,5.83,5.81,5.95,0,*7B
1530025533.45,23937,16.31,73992.8,5.81,5.55,5.55,0,*7D
1530025534.63,23938,16.31,73990.8,5.83,5.37,5.59,0,*78
1530025535.81,23939,16.31,73994.0,5.83,5.19,5.29,0,*72
1530025536.99,23940,16.31,73998.8,5.83,5.19,5.37,0,*73
1530025538.18,23941,16.31,73992.3,5.85,5.37,5.63,0,*79
1530025539.36,23942,16.31,73998.0,5.83,5.11,5.15,0,*79
1530025540.54,23943,16.31,73994.8,5.83,5.11,5.19,0,*74
1530025541.74,23944,16.31,73992.5,5.83,5.41,5.51,0,*7A
1530025542.94,23945,16.31,73996.8,5.83,5.51,5.63,0,*7B
1530025544.11,23946,16.31,73992.8,5.83,5.29,5.59,0,*7E
1530025545.31,23947,16.31,73998.0,5.85,5.15,5.19,0,*72
1530025546.52,23948,16.31,73994.5,5.83,5.01,5.11,0,*76
1530025547.75,23949,16.31,73994.8,5.83,4.93,5.05,0,*78
1530025548.92,23950,16.31,73992.5,5.83,5.15,5.29,0,*71
1530025550.1,23951,16.31,73992.0,5.83,5.19,5.37,0,*73
1530025551.31,23952,16.31,73990.8,5.83,5.27,5.51,0,*7D
1530025552.49,23953,16.31,73994.8,5.83,5.15,5.19,0,*71
1530025553.67,23954,16.31,73994.0,5.83,5.19,5.37,0,*76
1530025554.88,23955,16.25,73992.8,5.85,5.27,5.49,0,*75
1530025556.08,23956,16.31,73994.8,5.85,5.41,5.59,0,*77
1530025557.25,23957,16.31,73998.0,5.83,5.37,5.49,0,*70
1530025558.46,23958,16.31,73998.0,5.83,5.05,5.15,0,*77
1530025559.65,23959,16.31,73994.0,5.85,5.15,5.29,0,*7E
1530025560.87,23960,16.31,73992.5,5.85,5.37,5.51,0,*7B
1530025562.08,23961,16.31,73994.0,5.85,5.37,5.51,0,*7A
1530025563.34,23962,16.31,73992.3,5.89,5.51,5.55,0,*71
1530025564.53,23963,16.31,73992.5,5.85,5.59,5.71,0,*72
1530025565.76,23964,16.31,73994.0,5.91,5.55,5.77,0,*7A
1530025566.94,23965,16.31,73992.3,5.91,5.23,5.33,0,*7A
1530025568.14,23966,16.31,73994.0,5.89,5.29,5.41,0,*7F
1530025569.35,23967,16.31,73992.3,5.89,5.23,5.41,0,*74
1530025570.61,23968,16.31,73996.3,5.89,4.93,4.97,0,*7B
1530025571.81,23969,16.31,73992.3,5.89,4.41,4.49,0,*76
1530025572.99,23970,16.31,73994.3,5.83,4.37,4.45,0,*79
1530025574.19,23971,16.31,73992.8,5.83,4.79,4.89,0,*72
1530025575.39,23972,16.31,73992.8,5.83,5.15,5.27,0,*7F
1530025576.58,23973,16.31,73994.8,5.83,5.15,5.27,0,*7E
1530025577.76,23974,16.31,73994.0,5.83,5.15,5.19,0,*74
1530025578.96,23975,16.31,73996.8,5.83,5.15,5.27,0,*78
1530025580.15,23976,16.31,73996.0,5.85,5.37,5.41,0,*7D
1530025581.4,23977,16.31,73996.0,5.85,5.73,5.85,0,*74
1530025582.62,23978,16.31,73994.0,5.85,5.63,5.81,0,*7E
1530025583.83,23979,16.31,73996.5,5.85,5.51,5.71,0,*71
1530025585.06,23980,16.31,73994.8,5.89,5.67,5.77,0,*78
1530025586.25,23981,16.31,73998.8,5.91,5.95,6.03,0,*7D
1530025587.49,23982,16.31,73996.3,5.91,6.17,6.35,0,*72
1530025588.7,23983,16.31,73998.5,5.89,6.11,6.25,0,*7D
1530025589.92,23984,16.31,73996.5,5.95,5.93,5.99,0,*7A
1530025591.13,23985,16.31,73996.5,5.93,5.49,5.59,0,*76
1530025592.36,23986,16.31,73996.5,5.93,5.37,5.55,0,*70
1530025593.57,23987,16.31,73994.3,5.95,5.63,5.81,0,*7F
1530025594.76,23988,16.31,73994.3,5.95,6.07,6.21,0,*78
1530025595.99,23989,16.31,73998.8,5.97,6.17,6.29,0,*72
1530025597.22,23990,16.31,73996.0,5.97,6.07,6.17,0,*76
1530025598.4,23991,16.31,73996.0,5.95,6.11,6.21,0,*77
1530025599.59,23992,16.31,73994.5,5.99,6.11,6.11,0,*7B
1530025600.78,23993,16.31,73998.8,5.99,5.95,6.11,0,*75
1530025602.01,23994,16.31,73998.0,5.97,5.63,5.73,0,*72
1530025603.24,23995,16.31,73996.3,5.99,5.73,5.85,0,*75
1530025604.43,23996,16.31,74000.0,5.99,5.95,6.03,0,*73
1530025605.65,23997,16.31,73994.8,5.99,6.03,6.13,0,*7F
1530025606.9,23998,16.31,73998.0,6.01,6.17,6.39,0,*7F
1530025608.15,23999,16.31,73994.3,6.01,5.93,5.99,0,*78
1530025609.35,24000,16.31,73996.5,6.01,5.49,5.71,0,*77
1530025610.58,24001,16.31,73994.5,6.03,5.77,5.93,0,*75
1530025611.79,24002,16.31,73994.8,6.03,6.07,6.17,0,*7D
1530025613.0,24003,16.31,73998.5,6.03,6.07,6.35,0,*7C
1530025614.21,24004,16.25,73994.0,6.03,6.03,6.17,0,*7F
1530025615.42,24005,16.31,73994.3,6.03,5.99,6.13,0,*7A
1530025616.63,24006,16.31,73994.0,6.03,6.07,6.35,0,*79
1530025617.87,24007,16.31,73996.5,6.05,6.21,6.39,0,*76
1530025619.08,24008,16.31,73998.8,6.07,6.53,6.75,0,*76
1530025620.33,24009,16.31,73998.3,6.07,6.35,6.43,0,*72
1530025621.57,24010,16.31,73996.0,6.09,6.65,6.79,0,*78
1530025622.8,24011,16.31,73992.8,6.09,7.11,7.37,0,*70
1530025624.04,24012,16.31,73994.0,6.13,7.41,7.61,0,*7E
1530025625.27,24013,16.31,73996.5,6.17,7.51,7.61,0,*7A
1530025626.5,24014,16.31,73994.0,6.19,6.57,6.69,0,*7D
1530025627.72,24015,16.31,73996.3,6.21,6.33,6.35,0,*7C
1530025628.96,24016,16.31,73996.0,6.19,6.65,6.87,0,*7E
1530025630.19,24017,16.31,73996.5,6.21,7.11,7.27,0,*7D
1530025631.39,24018,16.31,73998.5,6.23,7.37,7.59,0,*7D
1530025632.6,24019,16.31,73998.0,6.25,7.19,7.41,0,*7F
1530025633.82,24020,16.31,73996.0,6.27,7.29,7.51,0,*75
1530025635.03,24021,16.31,73996.3,6.29,7.65,7.79,0,*78
1530025636.26,24022,16.31,73996.8,6.31,7.77,8.01,0,*71
1530025637.52,24023,16.31,73996.0,6.31,7.65,7.77,0,*7D
1530025638.78,24024,16.31,73992.3,6.35,7.69,7.95,0,*7E
1530025640.04,24025,16.31,73998.3,6.39,7.91,8.13,0,*75
1530025641.24,24026,16.31,73994.8,6.41,7.87,8.05,0,*79
1530025642.47,24027,16.31,73992.5,6.43,7.87,8.01,0,*7E
1530025643.67,24028,16.31,73996.3,6.45,8.15,8.29,0,*79
1530025644.91,24029,16.31,73996.3,6.47,8.15,8.37,0,*75
1530025646.14,24030,16.31,73998.0,6.51,8.15,8.37,0,*7A
1530025647.38,24031,16.31,73998.8,6.51,8.15,8.37,0,*7B
1530025648.62,24032,16.31,73992.8,6.53,8.15,8.37,0,*7A
1530025649.87,24033,16.31,74000.3,6.57,8.29,8.51,0,*70
1530025651.13,24034,16.31,73992.3,6.61,8.55,8.75,0,*7F
1530025652.36,24035,16.31,73996.3,6.63,8.33,8.55,0,*7E
1530025653.59,24036,16.31,73994.8,6.67,8.51,8.71,0,*7B
1530025654.82,24037,16.31,73998.5,6.69,8.75,8.87,0,*7B
1530025656.07,24038,16.31,73996.3,6.69,8.71,8.89,0,*7E
1530025657.32,24039,16.31,73998.0,6.73,8.75,8.89,0,*70
1530025658.55,24040,16.31,73994.8,6.75,8.93,9.11,0,*70
1530025659.78,24041,16.31,73998.5,6.81,8.87,9.01,0,*7E
1530025660.98,24042,16.31,73992.0,6.83,8.51,8.61,0,*73
1530025662.2,24043,16.31,73996.0,6.85,8.23,8.37,0,*72
1530025663.4,24044,16.31,73992.3,6.85,7.91,8.01,0,*76
1530025664.61,24045,16.31,73998.3,6.85,7.59,7.69,0,*72
1530025665.81,24046,16.31,73998.5,6.87,7.97,8.19,0,*79
1530025667.04,24047,16.31,73998.0,6.87,7.91,8.19,0,*7E
1530025668.27,24048,16.31,73996.3,6.87,7.87,8.01,0,*7F
1530025669.47,24049,16.31,73994.3,6.87,8.09,8.23,0,*77
1530025670.68,24050,16.31,73992.5,6.91,8.45,8.61,0,*76
1530025671.89,24051,16.31,73994.3,6.91,8.61,8.87,0,*79
1530025673.11,24052,16.31,73996.3,6.95,8.09,8.29,0,*74
1530025674.33,24053,16.31,73994.5,6.95,7.69,7.79,0,*76
1530025675.59,24054,16.31,73994.8,6.95,7.77,7.91,0,*78
1530025676.81,24055,16.31,73994.8,6.95,8.29,8.45,0,*7B
1530025678.04,24056,16.31,73996.5,6.99,8.51,8.79,0,*74
1530025679.27,24057,16.31,73994.5,6.99,8.93,9.25,0,*73
1530025680.48,24058,16.31,73998.8,7.05,9.19,9.43,0,*7B
1530025681.7,24059,16.31,73994.5,7.07,9.35,9.63,0,*74
1530025682.93,24060,16.31,73998.5,7.09,9.11,9.35,0,*75
1530025684.1,24061,16.31,73994.8,7.13,9.07,9.29,0,*75
1530025685.28,24062,16.31,73998.3,7.13,9.07,9.29,0,*76
1530025686.46,24063,16.31,73992.8,7.17,9.07,9.29,0,*73
1530025687.69,24064,16.31,73994.0,7.17,8.97,9.19,0,*7F
1530025688.9,24065,16.31,73998.3,7.21,8.69,8.89,0,*72
1530025690.1,24066,16.31,73996.8,7.21,8.59,8.79,0,*7D
1530025691.33,24067,16.31,73992.8,7.25,8.71,8.93,0,*76
1530025692.56,24068,16.31,73994.0,7.27,8.61,8.93,0,*7A
1530025693.77,24069,16.31,73998.0,7.25,8.41,8.69,0,*7E
1530025694.99,24070,16.31,73992.8,7.29,8.51,8.71,0,*72
1530025696.22,24071,16.31,73996.3,7.31,8.19,8.29,0,*7B
1530025697.44,24072,16.31,73996.3,7.31,7.97,8.29,0,*71
1530025698.65,24073,16.31,73994.8,7.29,8.19,8.41,0,*7E
1530025699.85,24074,16.31,73994.8,7.31,8.61,8.79,0,*74
1530025701.11,24075,16.31,73992.5,7.31,8.41,8.55,0,*79
1530025702.31,24076,16.31,73992.8,7.33,7.87,8.05,0,*78
1530025703.5,24077,16.31,74000.3,7.33,8.01,8.27,0,*78
1530025704.72,24078,16.31,73998.3,7.35,8.51,8.69,0,*7E
1530025705.9,24079,16.31,73994.3,7.33,8.65,8.83,0,*7A
1530025707.11,24080,16.31,73998.8,7.37,8.79,8.97,0,*70
1530025708.3,24081,16.31,73994.8,7.37,9.03,9.25,0,*75
1530025709.5,24082,16.31,73996.8,7.39,9.21,9.43,0,*78
1530025710.71,24083,16.31,73996.8,7.43,9.43,9.67,0,*76
1530025711.91,24084,16.31,73996.3,7.43,9.25,9.43,0,*77
1530025713.14,24085,16.31,73996.0,7.49,8.89,9.07,0,*7B
1530025714.35,24086,16.31,73996.0,7.49,9.07,9.29,0,*73
1530025715.56,24087,16.31,73998.5,7.51,9.25,9.57,0,*72
1530025716.79,24088,16.31,73996.3,7.53,9.53,9.71,0,*7A
1530025717.99,24089,16.31,73992.8,7.55,9.35,9.63,0,*7E
1530025719.25,24090,16.31,73996.8,7.57,9.61,9.81,0,*79
1530025720.47,24091,16.31,73996.0,7.57,9.57,9.67,0,*75
1530025721.71,24092,16.31,73996.8,7.61,9.89,10.17,0,*4F
1530025722.94,24093,16.31,73996.0,7.65,10.13,10.33,0,*77
1530025724.14,24094,16.31,73998.0,7.67,9.95,10.27,0,*41
1530025725.37,24095,16.31,73994.5,7.71,10.27,10.61,0,*74
1530025726.63,24096,16.31,73996.8,7.73,10.65,11.03,0,*76
1530025727.84,24097,16.31,73994.8,7.79,10.83,11.13,0,*74